Volver al catálogo

COSMOS 2251 DEB

ActivoLEO
NORAD 34728·DEBRIS·🇷🇺 Russia

Lanzado Jun 16, 1993 desde Plesetsk Cosmodrome

Loading…

Próximos Pases (próximas 24 horas)

TLE

EnvejeciendoSource: Space-Track

Época: Sep 12, 2026, 21:59 UTC

1 34728U 93036YW  26255.91664816  .00002217  00000-0  34731-3 0  9999
2 34728  74.0132  77.8587 0041661 167.7593 192.4602 14.72781210928344

Sigue COSMOS 2251 DEB en tiempo real con AllMySat

Download on the App Store